Location: Baia Mare
(47.6567°N, 23.5850°E)
Time: 12:01:04
(UTC+02:00)

ISS - Pass Details

Date: 25 February 2018
Orbit: 403 x 407 km, 51.6° (Epoch: 20 February)

Event Time Altitude Azimuth Distance (km) Brightness Sun altitude
Rises 06:40:11 0° 197° (SSW) 2,309 -0.1 -6.5°
Reaches altitude 10° 06:42:53 10° 173° (S) 1,453 -0.8 -6.0°
Maximum altitude 06:44:49 15° 136° (SE) 1,197 -0.6 -5.7°
Drops below altitude 10° 06:46:45 10° 100° (E) 1,458 0.9 -5.4°
Sets 06:49:28 0° 75° (ENE) 2,322 1.5 -4.9°
